Location: Silent Lake
(44.9206°N, 78.0708°W)
Time: 16:09:27
(UTC-04:00)

SL-16 R/B - Pass Details

Date: 19 April 2018
Orbit: 840 x 850 km, 71.0° (Epoch: 18 September)

Event Time Altitude Azimuth Distance (km) Brightness Sun altitude
Exits shadow 23:12:18 48° 233° (SW) 1,092 2.6 -27.5°
Maximum altitude 23:13:49 70° 298° (WNW) 899 2.4 -27.7°
Drops below altitude 10° 23:19:28 10° 22° (NNE) 2,468 5.0 -28.2°
Sets 23:21:56 0° 25° (NNE) 3,405 5.8 -28.4°
